Regional Weather Roundup
Issued by NWS

Home | Current Version | Previous Version | Graphics & Text | Print | Product List | Glossary On
Versions: 1 2 3 4 5 6 7 8 9 10 11 12 13 14 15 16 17 18 19 20 21 22 23 24 25 26 27 28 29 30 31 32 33 34 35 36 37 38 39 40 41 42 43 44 45 46 47 48 49 50
000
ASUS44 KMEG 110510
RWRTN
TENNESSEE HOURLY STATE WEATHER ROUNDUP
NATIONAL WEATHER SERVICE MEMPHIS TN
1200 AM CDT FRI JUL 11 2014

TNZ002-004-019-021-049-052-054-088>092-110600-
WEST TENNESSEE

CITY           SKY/WX    TMP DP  RH WIND       PRES   REMARKS
MEMPHIS INTL   CLOUDY    81  64  56 SE6       30.11R
NWS MEMPHIS      N/A     73 N/A N/A MISG        N/A
JACKSON        MOCLDY    72  69  90 CALM      30.12S
DYERSBURG      MOCLDY    75  63  64 NE3       30.12S
UNION CITY     CLEAR     73  66  78 CALM      30.11S
PARIS          PTCLDY    68  65  90 CALM      30.14S
LEXINGTON      CLEAR     70  68  94 CALM      30.12S
SAVANNAH       MOCLDY    67  67 100 CALM      30.13S
$$

TNZ008-025-027-028-033-062-065-066-110600-
NORTH MIDDLE TENNESSEE

CITY           SKY/WX    TMP DP  RH WIND       PRES   REMARKS
NASHVILLE      MOCLDY    76  63  64 N7        30.14R
DICKSON        MOCLDY    73  64  73 CALM      30.15R
PORTLAND       CLEAR     68  63  83 CALM      30.15R
CLARKSVILLE    PTCLDY    71  64  78 CALM      30.14R
LEBANON        MOCLDY    69  62  78 CALM      30.13R
SMYRNA         MOCLDY    71  65  81 CALM      30.14S
MURFREESBORO   MOCLDY    74  65  73 N5        30.13R
COOKEVILLE     CLEAR     66  66 100 CALM      30.15S
LIVINGSTON     CLOUDY    69  64  84 CALM      30.17R
GALLATIN       MOCLDY    74  64  70 N6        30.15R
CROSSVILLE     CLOUDY    66  62  87 CALM      30.19S
$$

TNZ061-075-076-078-094-096-097-110600-
SOUTH MIDDLE TENNESSEE

CITY           SKY/WX    TMP DP  RH WIND       PRES   REMARKS
LEWISBURG      MOCLDY    69  65  87 CALM      30.13R
TULLAHOMA      CLEAR     66  63  88 CALM      30.16S
WINCHESTER     CLEAR     66  64  94 CALM      30.15S
MCMINNVILLE    CLEAR     66  66 100 CALM      30.15S
COLUMBIA       CLEAR     70  68  94 CALM      30.13R
$$

TNZ017-018-042-046-047-110600-
NORTHEAST TENNESSEE

CITY           SKY/WX    TMP DP  RH WIND       PRES   REMARKS
TRI CITIES     PTCLDY    67  63  87 N3        30.17R
ELIZABETHTON   CLEAR     66  61  82 NE3       30.18S
$$

TNZ012-013-036-069-073-074-110600-
CENTRAL EAST TENNESSEE

CITY           SKY/WX    TMP DP  RH WIND       PRES   REMARKS
KNOXVILLE      CLOUDY    70  66  87 NE3       30.12S
OAK RIDGE      PTCLDY    70  68  93 CALM      30.14F
$$

TNZ083-085-099-110600-
SOUTHEAST TENNESSEE

CITY           SKY/WX    TMP DP  RH WIND       PRES   REMARKS
CHATTANOOGA    PTCLDY    74  68  81 CALM      30.12S
$$

SKY/WX REPORTED AS FAIR MEANS FEW OR NO CLOUDS BELOW
12 THOUSAND FEET.



USA.gov is the U.S. government's official web portal to all federal, state and local government web resources and services.